QPF
0.03 0.03 0.03 0.03 0.04 0.06 0.08 0.07 0.07 0.06 0.04 0.04 0.05 0.07 0.07 0.09 0.08 0.05 0.04 0.05 0.05 0.04 0.03 0.03 0.02 0.02 0.02 0.02 0.02 0.03 0.03 0.03 0.03 0.03 0.04 0.04 0.04 0.04
0.03 0.03 0.02 0.03 0.04 0.04 0.05 0.05 0.06 0.06 0.05 0.04 0.05 0.06 0.06 0.05 0.06 0.05 0.04 0.05 0.06 0.06 0.05 0.05 0.05 0.04 0.03 0.02 0.02 0.02 0.02 0.02 0.02 0.02 0.02 0.02 0.02 0.03
0.02 0.02 0.02 0.02 0.02 0.03 0.03 0.04 0.06 0.07 0.06 0.04 0.04 0.06 0.07 0.06 0.06 0.06 0.05 0.05 0.06 0.07 0.06 0.05 0.04 0.04 0.03 0.02 0.01 0.01 0.01 0.02 0.02 0.03 0.02 0.02 0.02 0.02
0.03 0.03 0.03 0.03 0.02 0.02 0.02 0.02 0.03 0.04 0.05 0.03 0.03 0.05 0.05 0.06 0.07 0.07 0.07 0.07 0.07 0.09 0.09 0.07 0.05 0.04 0.03 0.03 0.02 0.02 0.03 0.04 0.04 0.03 0.02 0.02 0.02 0.02
0.05 0.05 0.05 0.04 0.02 0.03 0.03 0.03 0.03 0.04 0.04 0.04 0.03 0.05 0.05 0.06 0.07 0.07 0.08 0.09 0.09 0.09 0.10 0.07 0.06 0.05 0.05 0.04 0.04 0.05 0.05 0.04 0.03 0.02 0.02 0.02 0.02 0.02
0.07 0.08 0.07 0.06 0.05 0.06 0.06 0.05 0.06 0.06 0.05 0.05 0.05 0.06 0.06 0.07 0.07 0.07 0.07 0.06 0.06 0.06 0.06 0.06 0.06 0.06 0.06 0.05 0.04 0.04 0.03 0.02 0.02 0.01 0.01 0.01 0.01 0.01
0.10 0.11 0.12 0.11 0.10 0.10 0.09 0.08 0.09 0.09 0.08 0.08 0.08 0.08 0.09 0.10 0.09 0.08 0.07 0.07 0.06 0.06 0.06 0.07 0.07 0.06 0.04 0.03 0.02 0.02 0.02 0.02 0.01 0.01 0.01 0.01 0.01 0.01
0.20 0.20 0.20 0.17 0.13 0.10 0.09 0.09 0.09 0.09 0.09 0.10 0.11 0.11 0.10 0.10 0.09 0.08 0.08 0.06 0.05 0.04 0.05 0.05 0.04 0.04 0.04 0.03 0.03 0.02 0.02 0.01 0.01 0.02 0.02 0.03 0.03 0.03
0.15 0.17 0.15 0.14 0.12 0.09 0.07 0.06 0.06 0.06 0.05 0.06 0.06 0.06 0.07 0.09 0.09 0.08 0.08 0.07 0.05 0.04 0.04 0.04 0.04 0.04 0.03 0.03 0.03 0.02 0.02 0.02 0.02 0.03 0.03 0.03 0.03 0.03
0.04 0.06 0.07 0.07 0.09 0.09 0.08 0.06 0.04 0.03 0.04 0.03 0.04 0.05 0.08 0.10 0.10 0.08 0.07 0.07 0.06 0.06 0.06 0.08 0.07 0.06 0.05 0.05 0.05 0.04 0.03 0.03 0.02 0.02 0.03 0.03 0.03 0.03
0.02 0.03 0.03 0.02 0.03 0.04 0.06 0.07 0.05 0.03 0.04 0.04 0.05 0.06 0.06 0.06 0.06 0.06 0.08 0.09 0.08 0.08 0.07 0.07 0.08 0.08 0.08 0.06 0.04 0.04 0.04 0.03 0.02 0.03 0.03 0.04 0.04 0.05
0.02 0.02 0.03 0.02 0.02 0.02 0.01 0.02 0.03 0.03 0.03 0.03 0.03 0.04 0.03 0.04 0.05 0.05 0.07 0.09 0.09 0.08 0.07 0.08 0.07 0.07 0.07 0.06 0.05 0.05 0.05 0.05 0.05 0.04 0.04 0.04 0.05 0.06
0.03 0.02 0.03 0.03 0.02 0.02 0.02 0.02 0.02 0.01 0.01 0.01 0.01 0.01 0.02 0.03 0.05 0.05 0.06 0.08 0.09 0.10 0.10 0.09 0.08 0.07 0.06 0.06 0.05 0.04 0.04 0.04 0.03 0.03 0.03 0.02 0.03 0.03
0.02 0.02 0.02 0.02 0.02 0.02 0.02 0.02 0.02 0.01 0.01 0.01 0.01 0.02 0.02 0.03 0.04 0.05 0.05 0.05 0.07 0.08 0.09 0.08 0.08 0.07 0.06 0.05 0.04 0.03 0.03 0.02 0.02 0.02 0.01 0.02 0.02 0.02
0.01 0.01 0.01 0.01 0.02 0.01 0.02 0.02 0.01 0.01 0.01 0.01 0.01 0.02 0.02 0.02 0.03 0.04 0.05 0.06 0.06 0.06 0.06 0.05 0.06 0.05 0.05 0.04 0.03 0.03 0.02 0.02 0.02 0.01 0.01 0.01 0.01 0.01
0.01 0.01 0.01 0.01 0.01 0.01 0.01 0.01 0.01 0.01 0.02 0.02 0.03 0.02 0.02 0.03 0.03 0.03 0.03 0.04 0.04 0.04 0.04 0.04 0.04 0.04 0.03 0.03 0.02 0.02 0.02 0.01 0.01 0.01 0.01 0.01 0.01 0.01
0.02 0.01 0.01 0.01 0.01 0.01 0.02 0.02 0.02 0.02 0.02 0.02 0.02 0.02 0.02 0.02 0.02 0.02 0.03 0.03 0.03 0.02 0.02 0.02 0.02 0.02 0.02 0.02 0.02 0.01 0.01 0.01 0.01 0.01 0.01 0.01 0.01 0.01
0.02 0.01 0.01 0.01 0.01 0.01 0.01 0.02 0.02 0.02 0.02 0.03 0.02 0.02 0.02 0.02 0.02 0.02 0.02 0.02 0.02 0.02 0.02 0.02 0.02 0.02 0.02 0.02 0.02 0.01 0.01 0.01 0.01 0.01 0.01 0.01 0.01 0.01
0.01 0.01 0.01 0.01 0.01 0.01 0.01 0.01 0.02 0.02 0.02 0.03 0.03 0.03 0.03 0.02 0.02 0.02 0.02 0.02 0.02 0.02 0.02 0.01 0.01 0.02 0.02 0.01 0.01 0.01 0.01 0.01 0.01 0.01 0.01 0.01 0.01 0.01
0.01 0.01 0.01 0.01 0.01 0.01 0.01 0.01 0.01 0.02 0.03 0.03 0.03 0.03 0.03 0.03 0.04 0.04 0.04 0.03 0.03 0.02 0.01 0.01 0.01 0.01 0.01 0.01 0.01 0.01 0.02 0.02 0.02 0.02 0.02 0.02 0.02 0.02
0.02 0.01 0.01 0.01 0.01 0.01 0.01 0.01 0.03 0.04 0.04 0.04 0.03 0.02 0.02 0.02 0.02 0.03 0.03 0.02 0.02 0.01 0.01 0.01 0.01 0.01 0.01 0.01 0.01 0.01 0.01 0.02 0.02 0.03 0.03 0.03 0.03 0.03
0.02 0.01 0.01 0.01 0.02 0.01 0.01 0.01 0.02 0.02 0.02 0.02 0.01 0.01 0.01 0.00 0.01 0.01 0.01 0.01 0.01 0.01 0.01 0.01 0.01 0.01 0.01 0.02 0.02 0.01 0.01 0.01 0.01 0.01 0.02 0.02 0.02 0.02
0.02 0.02 0.01 0.01 0.02 0.02 0.02 0.02 0.01 0.01 0.01 0.01 0.01 0.01 0.01 0.01 0.01 0.01 0.01 0.01 0.01 0.01 0.01 0.01 0.01 0.01 0.02 0.02 0.02 0.02 0.02 0.01 0.02 0.02 0.02 0.02 0.02 0.01
MSLP
1015.12 1015.35 1015.58 1015.78 1015.93 1015.97 1015.93 1015.80 1015.61 1015.40 1015.20 1015.05 1014.94 1014.89 1014.88 1014.88 1014.87 1014.84 1014.77 1014.68 1014.56 1014.45 1014.36 1014.29 1014.25 1014.23 1014.22 1014.21 1014.19 1014.15 1014.10 1014.03 1013.97 1013.91 1013.86 1013.81 1013.76 1013.70
1014.91 1015.14 1015.37 1015.56 1015.70 1015.75 1015.72 1015.63 1015.50 1015.36 1015.25 1015.19 1015.18 1015.22 1015.30 1015.37 1015.43 1015.45 1015.43 1015.37 1015.27 1015.17 1015.07 1014.99 1014.93 1014.88 1014.83 1014.78 1014.72 1014.63 1014.54 1014.43 1014.33 1014.25 1014.18 1014.13 1014.09 1014.05
1014.83 1015.06 1015.28 1015.45 1015.56 1015.60 1015.57 1015.49 1015.39 1015.30 1015.26 1015.28 1015.36 1015.49 1015.66 1015.82 1015.96 1016.06 1016.11 1016.10 1016.06 1016.00 1015.93 1015.86 1015.80 1015.74 1015.67 1015.59 1015.48 1015.36 1015.21 1015.07 1014.93 1014.83 1014.75 1014.71 1014.69 1014.68
1014.86 1015.09 1015.29 1015.43 1015.51 1015.52 1015.47 1015.38 1015.30 1015.24 1015.25 1015.32 1015.47 1015.68 1015.93 1016.18 1016.41 1016.59 1016.73 1016.81 1016.84 1016.85 1016.84 1016.81 1016.78 1016.73 1016.66 1016.56 1016.42 1016.26 1016.07 1015.89 1015.73 1015.60 1015.52 1015.49 1015.50 1015.53
1014.93 1015.16 1015.35 1015.47 1015.52 1015.50 1015.42 1015.33 1015.24 1015.19 1015.22 1015.32 1015.52 1015.79 1016.10 1016.42 1016.73 1017.01 1017.24 1017.41 1017.54 1017.64 1017.71 1017.75 1017.77 1017.75 1017.70 1017.60 1017.45 1017.27 1017.06 1016.85 1016.66 1016.52 1016.44 1016.42 1016.46 1016.54
1014.97 1015.22 1015.40 1015.52 1015.55 1015.51 1015.41 1015.30 1015.20 1015.15 1015.18 1015.30 1015.51 1015.81 1016.16 1016.54 1016.91 1017.27 1017.59 1017.86 1018.09 1018.29 1018.45 1018.58 1018.67 1018.71 1018.69 1018.62 1018.48 1018.29 1018.08 1017.86 1017.66 1017.52 1017.44 1017.44 1017.51 1017.63
1014.93 1015.19 1015.39 1015.50 1015.54 1015.49 1015.40 1015.28 1015.17 1015.12 1015.14 1015.25 1015.47 1015.77 1016.13 1016.54 1016.96 1017.38 1017.77 1018.13 1018.46 1018.76 1019.01 1019.23 1019.40 1019.51 1019.55 1019.52 1019.41 1019.25 1019.05 1018.84 1018.65 1018.52 1018.45 1018.47 1018.56 1018.71
1014.75 1015.03 1015.25 1015.39 1015.45 1015.43 1015.35 1015.25 1015.15 1015.09 1015.10 1015.20 1015.39 1015.68 1016.04 1016.45 1016.90 1017.35 1017.80 1018.23 1018.64 1019.02 1019.37 1019.67 1019.92 1020.11 1020.22 1020.24 1020.19 1020.07 1019.90 1019.72 1019.56 1019.45 1019.40 1019.44 1019.55 1019.72
1014.41 1014.72 1014.98 1015.16 1015.27 1015.30 1015.26 1015.18 1015.10 1015.05 1015.05 1015.14 1015.31 1015.57 1015.91 1016.31 1016.75 1017.22 1017.70 1018.18 1018.64 1019.09 1019.51 1019.89 1020.22 1020.48 1020.66 1020.75 1020.76 1020.70 1020.59 1020.46 1020.34 1020.26 1020.24 1020.30 1020.42 1020.60
1013.95 1014.28 1014.58 1014.83 1015.00 1015.09 1015.11 1015.08 1015.04 1015.00 1015.01 1015.08 1015.22 1015.45 1015.76 1016.13 1016.56 1017.03 1017.52 1018.02 1018.52 1019.01 1019.49 1019.92 1020.31 1020.63 1020.88 1021.04 1021.11 1021.12 1021.08 1021.01 1020.95 1020.91 1020.92 1020.99 1021.12 1021.30
1013.40 1013.76 1014.11 1014.42 1014.66 1014.83 1014.92 1014.95 1014.95 1014.94 1014.95 1015.01 1015.14 1015.34 1015.62 1015.96 1016.36 1016.81 1017.30 1017.80 1018.32 1018.83 1019.33 1019.81 1020.23 1020.60 1020.91 1021.13 1021.27 1021.35 1021.38 1021.38 1021.37 1021.38 1021.42 1021.50 1021.63 1021.80
1012.84 1013.23 1013.63 1013.99 1014.30 1014.54 1014.70 1014.79 1014.83 1014.86 1014.89 1014.95 1015.06 1015.24 1015.49 1015.80 1016.18 1016.61 1017.08 1017.57 1018.08 1018.60 1019.11 1019.60 1020.05 1020.45 1020.79 1021.06 1021.26 1021.40 1021.49 1021.55 1021.60 1021.64 1021.71 1021.81 1021.93 1022.08
1012.32 1012.73 1013.16 1013.58 1013.94 1014.24 1014.45 1014.60 1014.69 1014.74 1014.79 1014.86 1014.97 1015.14 1015.37 1015.66 1016.02 1016.42 1016.87 1017.35 1017.84 1018.35 1018.85 1019.33 1019.79 1020.20 1020.57 1020.87 1021.12 1021.31 1021.45 1021.56 1021.64 1021.72 1021.81 1021.91 1022.02 1022.15
1011.88 1012.30 1012.75 1013.19 1013.59 1013.92 1014.18 1014.37 1014.49 1014.58 1014.65 1014.73 1014.85 1015.02 1015.24 1015.52 1015.86 1016.25 1016.68 1017.13 1017.60 1018.09 1018.57 1019.04 1019.48 1019.90 1020.27 1020.59 1020.86 1021.09 1021.26 1021.40 1021.52 1021.62 1021.71 1021.81 1021.90 1022.00
1011.51 1011.92 1012.37 1012.82 1013.23 1013.58 1013.86 1014.07 1014.22 1014.33 1014.43 1014.54 1014.67 1014.85 1015.08 1015.36 1015.70 1016.07 1016.48 1016.91 1017.36 1017.82 1018.27 1018.72 1019.14 1019.54 1019.91 1020.24 1020.52 1020.76 1020.95 1021.11 1021.24 1021.35 1021.44 1021.52 1021.60 1021.67
1011.17 1011.56 1011.98 1012.41 1012.81 1013.16 1013.44 1013.67 1013.84 1013.99 1014.12 1014.26 1014.42 1014.62 1014.87 1015.16 1015.50 1015.86 1016.26 1016.67 1017.10 1017.52 1017.95 1018.37 1018.77 1019.15 1019.50 1019.82 1020.10 1020.35 1020.55 1020.71 1020.84 1020.94 1021.02 1021.09 1021.14 1021.18
1010.81 1011.15 1011.53 1011.92 1012.29 1012.62 1012.91 1013.14 1013.35 1013.52 1013.70 1013.88 1014.08 1014.32 1014.60 1014.91 1015.25 1015.61 1016.00 1016.39 1016.79 1017.19 1017.59 1017.98 1018.36 1018.72 1019.06 1019.36 1019.64 1019.87 1020.06 1020.22 1020.34 1020.43 1020.50 1020.54 1020.57 1020.59
1010.36 1010.65 1010.97 1011.31 1011.64 1011.95 1012.23 1012.49 1012.72 1012.95 1013.17 1013.41 1013.67 1013.95 1014.26 1014.59 1014.95 1015.31 1015.68 1016.06 1016.44 1016.81 1017.19 1017.55 1017.91 1018.26 1018.58 1018.88 1019.14 1019.36 1019.54 1019.68 1019.79 1019.86 1019.90 1019.93 1019.94 1019.95
1009.80 1010.02 1010.28 1010.57 1010.86 1011.16 1011.45 1011.73 1012.01 1012.29 1012.58 1012.88 1013.20 1013.53 1013.88 1014.23 1014.59 1014.95 1015.32 1015.67 1016.03 1016.39 1016.75 1017.10 1017.45 1017.78 1018.10 1018.38 1018.63 1018.84 1019.01 1019.14 1019.22 1019.27 1019.30 1019.31 1019.31 1019.31
1009.15 1009.29 1009.49 1009.73 1010.00 1010.29 1010.60 1010.92 1011.25 1011.60 1011.96 1012.33 1012.71 1013.09 1013.46 1013.84 1014.20 1014.56 1014.91 1015.25 1015.59 1015.94 1016.28 1016.63 1016.98 1017.31 1017.63 1017.91 1018.16 1018.36 1018.51 1018.62 1018.68 1018.72 1018.72 1018.72 1018.71 1018.71
1008.45 1008.54 1008.68 1008.89 1009.14 1009.44 1009.77 1010.14 1010.54 1010.95 1011.38 1011.81 1012.24 1012.66 1013.05 1013.43 1013.79 1014.13 1014.46 1014.79 1015.12 1015.46 1015.81 1016.16 1016.52 1016.86 1017.19 1017.48 1017.73 1017.92 1018.06 1018.15 1018.20 1018.21 1018.20 1018.18 1018.17 1018.17
1007.81 1007.84 1007.95 1008.13 1008.38 1008.70 1009.07 1009.49 1009.94 1010.42 1010.90 1011.38 1011.84 1012.27 1012.67 1013.04 1013.38 1013.70 1014.01 1014.32 1014.64 1014.98 1015.34 1015.71 1016.08 1016.45 1016.79 1017.09 1017.35 1017.54 1017.67 1017.75 1017.78 1017.78 1017.75 1017.72 1017.71 1017.71
1007.32 1007.31 1007.40 1007.57 1007.83 1008.17 1008.58 1009.04 1009.54 1010.06 1010.57 1011.06 1011.53 1011.95 1012.32 1012.66 1012.97 1013.26 1013.54 1013.84 1014.15 1014.50 1014.87 1015.26 1015.67 1016.06 1016.43 1016.75 1017.01 1017.21 1017.33 1017.40 1017.42 1017.40 1017.37 1017.34 1017.32 1017.33
Thickness
5738 5737 5735 5735 5734 5732 5729 5725 5718 5710 5709 5711 5711 5711 5710 5708 5707 5704 5702 5700 5697 5694 5691 5689 5686 5683 5680 5677 5674 5672 5669 5667 5665 5663 5661 5660 5658 5656
5735 5733 5732 5731 5730 5729 5727 5724 5721 5714 5708 5708 5707 5706 5704 5703 5700 5697 5695 5693 5690 5687 5684 5681 5678 5675 5672 5669 5666 5663 5661 5659 5656 5654 5652 5651 5649 5647
5731 5729 5728 5727 5726 5724 5723 5720 5717 5713 5706 5703 5702 5700 5697 5695 5692 5690 5688 5685 5682 5679 5676 5673 5669 5666 5663 5660 5657 5655 5652 5650 5647 5645 5643 5641 5638 5636
5725 5724 5723 5723 5720 5719 5717 5715 5712 5710 5705 5699 5695 5693 5690 5688 5685 5682 5679 5677 5674 5671 5667 5664 5660 5657 5654 5651 5648 5645 5643 5640 5637 5635 5632 5630 5628 5625
5720 5719 5717 5716 5714 5713 5711 5709 5707 5705 5701 5696 5690 5687 5683 5680 5677 5674 5671 5668 5665 5662 5658 5654 5651 5647 5644 5641 5638 5635 5632 5630 5627 5625 5622 5620 5617 5615
5714 5713 5711 5710 5708 5707 5705 5702 5700 5696 5693 5689 5684 5680 5676 5673 5669 5665 5660 5658 5655 5653 5649 5645 5641 5638 5634 5631 5628 5625 5622 5619 5616 5614 5611 5609 5606 5604
5708 5707 5705 5704 5702 5700 5698 5695 5692 5688 5684 5680 5676 5672 5668 5665 5661 5658 5653 5649 5645 5643 5639 5635 5632 5628 5625 5622 5619 5616 5613 5610 5607 5604 5601 5598 5596 5593
5700 5699 5698 5696 5695 5694 5692 5689 5686 5682 5677 5673 5669 5665 5662 5659 5655 5651 5646 5641 5636 5635 5630 5626 5623 5619 5617 5614 5611 5607 5604 5601 5597 5594 5591 5588 5585 5583
5693 5691 5690 5688 5686 5685 5683 5680 5678 5675 5672 5667 5662 5658 5656 5653 5649 5645 5640 5636 5632 5629 5623 5618 5615 5611 5609 5606 5603 5599 5596 5592 5589 5585 5582 5579 5576 5572
5686 5684 5681 5679 5678 5676 5674 5670 5667 5664 5662 5659 5656 5653 5651 5647 5643 5640 5635 5630 5625 5621 5617 5611 5607 5603 5601 5598 5594 5591 5588 5584 5580 5577 5573 5570 5567 5564
5678 5676 5674 5671 5670 5668 5665 5660 5657 5655 5653 5651 5648 5645 5643 5639 5635 5630 5625 5620 5615 5611 5609 5604 5599 5595 5592 5589 5587 5583 5579 5575 5572 5569 5565 5562 5558 5555
5669 5667 5665 5663 5660 5658 5655 5651 5647 5645 5643 5640 5638 5635 5632 5629 5626 5622 5617 5612 5607 5603 5601 5596 5591 5586 5582 5580 5578 5575 5571 5567 5564 5560 5557 5553 5550 5546
5660 5657 5655 5654 5651 5648 5645 5642 5639 5636 5632 5629 5626 5624 5621 5619 5616 5612 5609 5604 5599 5596 5593 5589 5583 5579 5575 5570 5568 5566 5563 5559 5555 5552 5549 5546 5542 5538
5653 5649 5647 5645 5642 5639 5636 5633 5630 5627 5623 5619 5615 5612 5610 5607 5605 5602 5599 5596 5593 5589 5586 5582 5577 5572 5566 5562 5559 5557 5555 5552 5548 5544 5541 5538 5535 5532
5645 5642 5638 5635 5632 5629 5627 5624 5620 5616 5613 5609 5605 5602 5600 5597 5595 5592 5590 5586 5583 5580 5577 5573 5570 5565 5560 5555 5551 5548 5545 5544 5541 5538 5535 5531 5529 5525
5636 5633 5629 5626 5622 5620 5616 5613 5610 5606 5603 5599 5596 5593 5591 5587 5584 5581 5578 5575 5571 5569 5568 5564 5561 5557 5552 5549 5545 5541 5538 5535 5535 5532 5528 5525 5523 5520
5625 5622 5618 5614 5611 5608 5605 5602 5599 5596 5593 5590 5587 5583 5581 5578 5574 5571 5568 5565 5560 5557 5555 5554 5552 5548 5546 5542 5538 5536 5532 5530 5528 5525 5521 5518 5518 5516
5616 5611 5606 5603 5600 5597 5594 5591 5588 5585 5583 5580 5577 5574 5571 5568 5564 5561 5558 5555 5552 5549 5546 5544 5541 5538 5535 5535 5534 5530 5527 5525 5523 5520 5516 5512 5512 5512
5605 5601 5597 5593 5590 5587 5584 5581 5578 5575 5573 5570 5567 5564 5561 5558 5555 5552 5549 5545 5543 5540 5538 5535 5532 5528 5524 5523 5526 5525 5521 5519 5516 5513 5511 5508 5507 5508
5595 5591 5588 5584 5581 5578 5575 5572 5568 5566 5563 5560 5557 5554 5551 5548 5546 5543 5540 5537 5534 5532 5529 5526 5524 5521 5519 5517 5517 5518 5518 5514 5511 5508 5506 5504 5502 5502
5586 5582 5579 5576 5572 5569 5566 5563 5559 5556 5553 5549 5546 5544 5541 5538 5536 5534 5532 5529 5526 5523 5520 5519 5519 5518 5515 5511 5509 5510 5511 5510 5507 5504 5502 5498 5495 5494
5578 5574 5571 5567 5564 5560 5557 5553 5549 5546 5543 5540 5537 5534 5532 5530 5527 5525 5523 5520 5518 5515 5513 5512 5511 5509 5506 5503 5502 5501 5502 5503 5502 5500 5498 5496 5492 5489
5570 5566 5562 5558 5555 5551 5548 5544 5540 5536 5533 5531 5528 5525 5523 5521 5519 5517 5514 5512 5510 5508 5505 5503 5501 5500 5498 5496 5494 5494 5494 5494 5493 5492 5492 5492 5490 5489